Wind_Speed
26 23 20 14 18 14 13 10 8 19 20 26 37 31 26 27 30 41 28 34 34 49 40 41 34 32 28 33 33 33 35 39 46 42 42 37 38 37 38 35 32 31 27
28 19 5 6 15 22 28 22 25 17 26 24 11 14 16 14 17 19 34 51 44 55 53 31 25 23 29 39 37 37 39 40 41 45 37 39 40 34 45 40 41 35 34
34 27 20 30 32 28 34 37 21 19 13 17 9 9 21 31 23 29 15 12 26 20 18 19 26 29 35 36 37 38 39 40 43 44 44 41 38 41 41 44 38 37 40
38 36 38 36 31 29 27 31 22 16 16 14 16 12 14 12 12 21 21 13 13 19 22 25 29 29 31 36 38 38 40 44 44 43 48 42 48 50 46 37 41 43 44
33 33 40 41 42 39 31 28 25 23 15 10 9 6 4 6 10 12 13 15 17 18 17 22 28 31 33 34 35 39 43 49 51 54 49 47 47 44 48 37 41 43 45
24 24 29 28 28 32 29 30 29 29 28 24 22 19 15 12 10 7 2 3 5 5 8 10 13 18 23 24 27 32 33 38 44 40 46 45 47 41 53 45 41 35 41
20 23 24 23 24 25 23 24 23 23 23 20 19 17 13 12 12 10 8 6 6 6 7 8 9 11 14 17 18 19 19 21 25 29 34 40 37 41 41 42 42 43 49
16 18 19 19 20 20 19 19 19 19 19 18 16 14 13 11 10 9 8 9 10 11 12 13 15 16 17 19 21 22 23 25 26 25 26 28 31 32 36 40 47 44 44
13 15 17 18 18 18 17 18 19 17 16 15 15 13 11 10 10 11 12 14 16 18 19 21 22 23 24 24 26 27 28 30 31 31 31 32 32 35 33 33 34 42 48
13 16 17 17 18 18 19 19 19 18 17 17 16 14 13 13 12 13 14 17 19 21 23 26 27 29 31 31 32 31 32 34 36 36 35 35 35 37 39 38 38 34 40
14 15 16 17 18 19 20 19 20 20 20 19 19 19 19 19 19 20 22 24 26 28 29 31 33 36 37 38 39 39 40 41 42 43 43 42 40 40 40 40 41 40 38
16 17 17 18 18 18 18 18 18 18 19 20 20 20 21 23 26 28 29 32 33 34 36 37 38 39 40 41 42 44 45 46 46 47 47 47 47 47 44 42 42 42 43
15 15 15 17 17 17 17 18 18 19 20 20 21 22 23 23 26 29 31 33 36 38 40 41 42 43 43 43 44 46 47 48 48 48 47 47 49 51 50 47 44 44 44
12 14 17 18 19 20 20 20 20 21 22 24 26 28 29 31 33 34 38 39 40 41 41 41 41 42 44 45 44 44 43 45 46 46 46 46 46 46 48 49 48 45 42
13 17 20 22 24 26 27 29 29 29 29 30 30 32 34 36 39 42 44 46 47 47 47 45 43 42 41 40 39 39 40 41 41 41 41 42 42 43 43 45 46 46 46
16 18 21 23 26 29 30 30 31 32 34 33 36 38 39 40 41 43 44 45 46 45 44 44 42 42 42 41 39 37 37 38 38 37 37 39 39 38 39 40 41 41 41
16 20 23 25 27 29 30 30 30 32 32 34 36 38 41 44 45 45 43 42 41 41 42 41 40 38 37 35 35 34 32 33 34 35 36 36 37 37 36 36 35 36 35
18 21 23 26 29 32 35 36 36 35 35 35 38 39 39 40 41 41 40 40 40 40 40 39 37 36 35 33 32 32 31 31 31 31 31 32 32 33 32 31 31 31 30
21 24 26 29 31 34 37 39 39 39 39 41 41 40 40 41 41 41 40 39 39 38 38 38 37 36 35 34 33 32 31 29 28 27 27 27 29 29 28 28 27 26 27
25 28 30 32 34 36 39 40 40 39 40 41 42 42 41 39 39 40 41 41 40 40 39 38 37 36 35 34 33 32 30 29 27 26 25 25 26 26 25 25 24 23 22
28 31 33 34 35 37 39 40 40 40 41 41 41 41 42 42 42 42 41 40 40 39 38 38 37 36 34 34 33 31 29 28 26 25 24 23 23 22 22 22 21 20 20
31 33 35 36 37 39 40 40 40 41 41 41 40 40 41 43 43 43 43 42 41 39 39 38 38 36 34 32 32 31 28 27 26 24 23 22 21 21 21 19 18 17 16
34 35 36 37 38 40 39 40 41 41 40 40 41 42 42 42 42 41 41 41 40 39 38 37 37 35 33 31 30 30 28 25 25 24 22 21 21 20 19 18 17 14 12
35 35 36 38 39 39 39 40 40 40 40 41 42 42 41 41 40 40 39 39 39 37 36 36 35 34 33 31 29 28 28 25 24 23 21 19 19 19 17 16 15 15 11
35 36 37 39 39 39 39 39 39 40 41 42 41 40 40 40 40 40 39 39 38 36 34 34 33 33 32 30 28 26 25 24 23 21 20 19 18 18 17 15 13 13 12
35 37 39 39 39 39 40 39 40 41 42 41 40 41 42 42 42 41 41 38 37 35 34 33 32 31 30 28 26 25 24 22 21 20 19 18 17 16 15 14 13 12 11
Wind_Direction
346 328 301 267 254 220 196 144 199 201 214 232 239 240 271 249 221 222 236 221 227 233 249 251 235 200 220 248 251 250 251 257 263 267 276 282 272 265 273 260 260 256 250
26 19 4 218 215 205 151 162 166 199 208 224 221 226 249 250 286 260 263 239 254 248 265 251 247 232 231 244 248 252 255 260 262 265 284 274 280 269 286 276 258 251 252
53 49 47 82 93 104 124 123 157 184 205 240 191 192 216 216 234 239 204 225 216 271 220 232 238 239 242 247 251 254 258 261 264 269 280 274 281 275 285 281 266 257 257
51 55 59 54 68 91 80 107 139 144 169 142 152 176 186 215 229 232 247 269 261 263 280 268 258 256 255 257 259 261 264 266 270 277 276 278 271 278 278 265 264 272 267
50 48 52 45 49 55 72 79 80 101 113 116 119 131 154 226 231 241 254 268 273 272 282 276 274 273 269 269 274 273 271 270 269 275 275 274 274 272 272 268 269 268 273
59 59 62 61 60 62 64 70 75 79 82 86 93 88 84 95 87 92 49 321 296 295 311 311 295 282 283 280 279 277 279 274 269 274 271 281 275 274 269 273 257 260 256
59 62 66 61 61 62 62 71 74 73 77 76 78 81 79 68 72 63 51 37 15 355 340 334 322 312 311 309 308 307 306 302 293 288 281 276 279 271 268 276 269 261 258
53 55 59 60 60 60 59 60 63 65 67 69 65 62 57 47 38 26 9 349 340 332 325 312 306 305 306 302 302 302 300 298 295 294 293 294 291 287 281 270 273 267 259
42 42 43 47 49 51 50 47 47 44 38 37 38 35 24 15 4 351 342 331 325 317 311 306 304 301 296 293 291 290 292 293 295 296 295 290 288 289 288 284 278 273 267
38 38 36 36 34 32 33 30 28 26 21 19 13 6 1 352 341 330 321 318 314 312 308 304 303 303 302 299 294 292 291 288 286 284 285 287 288 286 284 285 286 284 274
43 40 33 30 27 24 23 19 17 12 8 1 355 348 344 337 333 328 324 320 318 316 314 311 309 307 304 300 297 296 292 287 285 285 283 281 280 280 281 280 278 279 277
43 35 30 27 24 21 16 10 6 2 357 354 348 345 338 334 331 328 326 324 322 319 317 314 310 306 303 300 298 296 293 290 287 283 281 280 279 278 276 275 275 274 273
25 19 15 13 10 9 8 5 1 358 355 350 345 339 335 332 332 330 326 323 321 321 318 316 314 311 308 305 303 299 296 293 290 287 285 280 278 276 275 273 272 268 265
14 12 10 6 2 358 357 357 355 351 347 343 340 337 335 333 330 329 328 328 327 323 320 318 315 313 312 310 308 304 300 298 296 294 291 288 283 279 277 276 273 269 265
10 9 6 2 358 355 352 350 347 344 344 341 339 338 335 333 332 331 329 326 325 323 321 319 316 313 310 308 307 305 304 301 299 297 295 291 289 286 283 280 277 273 271
360 358 356 355 355 356 354 347 342 340 340 340 338 338 336 334 332 330 328 326 324 321 318 316 315 313 311 309 307 306 304 302 301 302 302 301 300 296 289 285 284 280 274
347 348 349 349 349 348 346 344 341 339 338 336 335 333 333 332 331 330 328 325 322 320 319 318 316 314 312 310 309 307 304 303 305 306 307 306 304 303 298 292 287 284 281
339 339 340 342 340 341 342 340 339 337 334 331 331 331 331 330 327 325 322 321 319 317 316 315 314 313 311 310 307 305 305 305 306 307 308 307 305 304 301 297 294 290 285
329 330 335 337 336 337 338 336 333 331 330 329 330 330 329 326 323 322 321 319 318 316 314 313 312 311 310 309 308 308 306 305 304 304 305 307 307 305 303 302 299 295 289
324 328 330 332 332 332 332 330 327 325 326 327 326 326 325 323 321 320 319 317 315 314 312 311 311 310 309 307 306 305 305 304 303 303 303 305 306 308 307 305 302 297 291
322 323 325 326 326 327 326 323 322 323 325 325 324 323 322 321 320 317 315 314 313 311 310 309 308 307 306 305 304 303 303 302 300 299 298 300 302 304 308 308 303 298 293
319 319 320 321 322 321 320 319 321 323 323 322 321 321 320 318 316 314 314 313 312 311 311 309 307 306 305 304 302 301 301 298 297 295 295 295 297 299 302 308 304 297 291
313 316 318 317 317 317 317 320 321 321 320 320 319 318 316 314 313 312 312 311 311 311 310 307 306 305 304 303 301 299 298 296 294 293 292 290 290 293 297 298 301 298 288
312 313 312 313 315 316 319 320 319 319 318 318 316 314 313 313 313 312 312 311 310 310 309 307 306 305 304 302 301 298 297 297 294 293 292 290 286 286 291 295 296 293 291
309 310 311 313 315 318 318 318 318 316 315 314 314 314 313 313 313 312 311 310 309 309 307 306 305 305 304 302 301 298 295 294 292 291 290 288 285 284 283 286 290 288 283
307 308 312 315 317 317 317 315 314 316 317 316 316 314 315 315 314 313 311 311 310 308 307 306 304 303 302 301 299 297 295 292 290 289 288 286 286 285 284 280 279 282 282
Height
2964 2956 2950 2948 2947 2950 2949 2951 2956 2963 2970 2977 2983 2990 2995 2997 3000 3006 3014 3011 3019 3027 3020 3025 3008 3018 3031 3040 3044 3045 3049 3049 3046 3049 3049 3050 3053 3052 3051 3051 3053 3055 3055
2970 2964 2956 2948 2947 2947 2949 2951 2958 2963 2971 2974 2982 2986 2992 2992 2994 3000 3006 3009 3013 3016 3016 3015 3011 3021 3024 3032 3036 3036 3038 3040 3037 3034 3037 3040 3036 3039 3039 3038 3040 3042 3043
2981 2976 2971 2961 2952 2954 2948 2947 2959 2964 2967 2971 2980 2983 2989 2992 2993 2998 3002 3002 3001 3002 3007 3009 3014 3015 3020 3026 3027 3027 3028 3030 3028 3026 3025 3028 3027 3032 3030 3029 3030 3029 3030
2991 2986 2979 2973 2970 2965 2956 2958 2962 2966 2969 2976 2978 2984 2987 2989 2989 2997 2996 2994 2997 3000 3001 3005 3008 3011 3014 3018 3017 3016 3015 3019 3018 3015 3014 3013 3017 3019 3017 3016 3015 3017 3017
2999 2995 2986 2982 2975 2974 2971 2967 2966 2966 2974 2978 2980 2983 2985 2989 2990 2997 2994 2993 2995 2996 2999 3001 3003 3004 3006 3005 3006 3006 3005 3006 3005 3005 3004 3001 3005 3006 3005 3004 3003 3005 3006
3007 3002 2995 2994 2991 2987 2986 2983 2983 2980 2981 2985 2986 2983 2988 2991 2989 2991 2990 2989 2991 2992 2993 2995 2994 2994 2996 2993 2993 2993 2992 2992 2992 2993 2992 2989 2993 2992 2994 2992 2990 2990 2990
3013 3008 3004 3002 2997 2993 2992 2991 2990 2989 2987 2988 2986 2988 2991 2992 2990 2990 2987 2991 2993 2992 2994 2990 2991 2993 2991 2989 2987 2984 2983 2983 2982 2980 2979 2979 2978 2980 2978 2979 2980 2978 2978
3016 3013 3010 3007 3003 3001 3000 2997 2995 2994 2992 2992 2992 2993 2994 2993 2992 2992 2993 2994 2993 2991 2989 2992 2993 2990 2988 2988 2985 2980 2977 2977 2977 2972 2968 2968 2966 2966 2964 2964 2965 2963 2965
3019 3016 3012 3009 3007 3004 3002 2999 2996 2995 2994 2992 2992 2993 2993 2993 2992 2992 2992 2993 2992 2991 2991 2991 2988 2985 2985 2983 2979 2976 2970 2969 2967 2963 2960 2959 2956 2956 2954 2950 2950 2950 2949
3020 3017 3014 3011 3008 3006 3003 3001 2999 2998 2997 2994 2993 2991 2990 2991 2992 2993 2993 2991 2992 2989 2987 2986 2981 2978 2974 2972 2972 2966 2962 2962 2962 2960 2953 2949 2947 2946 2943 2938 2938 2936 2935
3022 3019 3017 3014 3011 3007 3005 3003 3001 3000 2997 2996 2994 2994 2991 2992 2990 2990 2988 2987 2984 2981 2978 2975 2971 2968 2965 2963 2959 2954 2953 2955 2953 2946 2944 2938 2936 2935 2935 2928 2926 2924 2926
3023 3021 3018 3016 3013 3011 3008 3005 3003 3000 2998 2995 2992 2990 2990 2987 2985 2981 2979 2975 2973 2972 2969 2966 2962 2961 2957 2953 2949 2944 2943 2941 2937 2934 2929 2921 2918 2920 2923 2918 2914 2911 2910
3023 3022 3020 3018 3015 3012 3009 3006 3003 2999 2997 2995 2993 2990 2987 2985 2982 2979 2977 2973 2969 2964 2960 2957 2952 2949 2946 2940 2933 2929 2926 2924 2919 2915 2911 2903 2902 2901 2905 2902 2902 2898 2897
3026 3024 3020 3017 3014 3011 3008 3005 3002 2999 2995 2992 2988 2985 2981 2978 2975 2972 2968 2964 2961 2957 2953 2947 2943 2937 2930 2925 2919 2916 2915 2911 2903 2896 2890 2890 2887 2884 2885 2883 2884 2884 2882
3025 3021 3018 3015 3011 3007 3002 2998 2994 2991 2989 2986 2983 2979 2976 2972 2967 2963 2959 2953 2949 2943 2938 2936 2932 2926 2923 2919 2914 2908 2899 2897 2890 2884 2880 2877 2874 2870 2869 2869 2868 2868 2864
3023 3020 3016 3012 3008 3003 3000 2996 2993 2989 2984 2980 2975 2970 2967 2963 2960 2955 2950 2944 2939 2935 2931 2927 2921 2916 2910 2905 2900 2895 2889 2887 2886 2878 2872 2864 2858 2856 2856 2858 2856 2853 2849
3021 3017 3013 3010 3006 3003 3000 2997 2992 2986 2981 2976 2971 2966 2960 2954 2948 2943 2939 2934 2929 2924 2918 2913 2908 2903 2898 2894 2890 2888 2886 2881 2874 2866 2859 2854 2850 2848 2848 2847 2845 2840 2837
3017 3014 3011 3007 3002 2998 2993 2989 2983 2979 2975 2971 2965 2960 2954 2948 2943 2938 2933 2927 2922 2916 2910 2905 2900 2895 2892 2888 2884 2880 2875 2870 2863 2856 2853 2849 2846 2843 2841 2838 2834 2831 2828
3013 3009 3005 3000 2996 2991 2986 2981 2976 2971 2966 2960 2955 2951 2945 2939 2934 2929 2924 2918 2913 2908 2902 2897 2892 2888 2883 2878 2874 2869 2864 2860 2855 2851 2848 2845 2840 2837 2833 2830 2826 2823 2821
3008 3003 2998 2994 2989 2984 2980 2975 2970 2965 2959 2953 2946 2940 2936 2932 2927 2920 2914 2910 2904 2899 2894 2888 2884 2879 2874 2869 2865 2860 2856 2852 2848 2844 2841 2838 2834 2830 2827 2824 2820 2818 2816
3001 2996 2992 2988 2983 2978 2974 2969 2964 2957 2951 2944 2938 2932 2926 2921 2916 2911 2907 2902 2896 2891 2886 2880 2876 2871 2866 2861 2856 2852 2848 2843 2840 2837 2834 2831 2829 2826 2823 2819 2816 2813 2811
2994 2990 2985 2981 2976 2971 2966 2961 2954 2948 2941 2936 2930 2925 2918 2913 2907 2902 2896 2891 2886 2881 2876 2871 2866 2861 2857 2853 2848 2844 2841 2837 2834 2830 2828 2825 2823 2820 2818 2815 2812 2809 2807
2987 2982 2978 2973 2969 2964 2958 2951 2944 2938 2933 2927 2921 2915 2910 2904 2898 2892 2887 2881 2876 2871 2866 2861 2857 2852 2848 2844 2840 2835 2833 2830 2827 2824 2822 2819 2817 2815 2813 2811 2808 2806 2803
2978 2974 2970 2965 2960 2954 2947 2941 2935 2929 2923 2917 2912 2906 2900 2894 2888 2882 2877 2871 2867 2862 2857 2852 2848 2843 2840 2836 2832 2828 2825 2823 2820 2817 2815 2813 2811 2809 2807 2805 2804 2802 2801
2970 2965 2961 2956 2950 2943 2937 2931 2926 2920 2915 2909 2903 2896 2890 2884 2878 2873 2867 2862 2858 2853 2849 2844 2840 2835 2832 2829 2825 2821 2818 2816 2813 2811 2809 2806 2805 2803 2802 2801 2800 2798 2797
2961 2957 2952 2945 2940 2933 2927 2922 2917 2911 2905 2898 2892 2886 2880 2874 2868 2863 2858 2853 2848 2844 2840 2835 2831 2827 2824 2821 2817 2814 2811 2809 2806 2804 2802 2801 2799 2798 2797 2796 2795 2794 2794